Location: La Silve
(44.2414°N, 5.8889°E)
Time: 09:40:45
(UTC+00:00)

PSLV R/B - Pass Details

Date: 01 December 2020
Orbit: 568 x 597 km, 98.2° (Epoch: 25 January)

Event Time Altitude Azimuth Distance (km) Brightness Sun altitude
Exits shadow 17:41:08 39° 66° (ENE) 869 4.3 -17.8°
Maximum altitude 17:41:57 44° 99° (E) 792 4.2 -17.9°
Drops below altitude 10° 17:45:49 10° 173° (S) 1,865 6.6 -18.6°
Sets 17:48:02 0° 180° (S) 2,760 7.6 -19.0°
